Location: Krakow
(50.0212°N, 19.9423°E)
Time: 08:25:03
(UTC+02:00)

CAS-6 - Pass Details

Date: 29 April 2024
Orbit: 606 x 626 km, 97.8° (Epoch: 19 September)

Event Time Altitude Azimuth Distance (km) Brightness Sun altitude
Exits shadow 23:29:08 31° 246° (WSW) 1,083 ? -23.4°
Maximum altitude 23:29:46 33° 264° (W) 1,049 ? -23.5°
Drops below altitude 10° 23:33:40 10° 329° (NNW) 1,982 ? -23.6°
Sets 23:36:02 0° 339° (NNW) 2,888 ? -23.7°
